Back to catalog

THORAD DELTA 1 DEB

AliveSSO
NORAD 9697·DEBRIS·🇺🇸 United States

Launched Nov 15, 1974 from Vandenberg Space Force Base

Loading…

Next Passes (next 24 hours)

TLE

FreshSource: Space-Track

Epoch: Sep 13, 2026, 19:01 UTC

1 09697U 74089DW  26256.79299030  .00000112  00000-0  95283-3 0  9993
2 09697 101.8238   9.1444 0145384 280.7281 234.8339 12.53807486370388

Track THORAD DELTA 1 DEB in real time with AllMySat

Download on the App Store